W4RAH-1 Weather Reports


time (UTC)temp
C
wind
direction
speed
KPH
gust
KPH
rain 1hr
cm
rain 24hr
cm
rain mn
cm
humidity
%
barometer
mb
20260504110330 6 265 0.0 0.0 0.00 0.00 0.00 85 1015.4
20260504081831 6 231 0.0 0.0 0.00 0.00 0.00 80 1015.7
20260504081257 6 231 0.0 0.0 0.00 0.00 0.00 81 1015.7
20260504080331 6 231 0.0 0.0 0.00 0.00 0.00 81 1015.6
20260504070317 6 229 0.0 0.0 0.00 0.00 0.00 73 1015.8
20260504050331 7 223 3.2 9.7 0.00 0.00 0.00 63 1016.3
20260504045817 7 226 1.6 11.3 0.00 0.00 0.00 62 1016.4
20260504045325 7 234 8.0 11.3 0.00 0.00 0.00 62 1016.4
20260504044752 7 207 0.0 1.6 0.00 0.00 0.00 61 1016.4
20260504043809 8 199 0.0 0.0 0.00 0.00 0.00 61 1016.2
20260504042822 8 221 0.0 0.0 0.00 0.00 0.00 60 1016.3
20260504042330 8 215 0.0 0.0 0.00 0.00 0.00 60 1016.2
20260504041757 8 215 0.0 8.0 0.00 0.00 0.00 59 1016.2
20260504040831 8 215 3.2 9.7 0.00 0.00 0.00 59 1016.2
20260504040256 8 232 0.0 0.0 0.00 0.00 0.00 58 1016.1
20260504035331 8 232 0.0 0.0 0.00 0.00 0.00 57 1016.1
20260504034820 8 232 0.0 0.0 0.00 0.00 0.00 56 1016.0
20260504034329 9 232 0.0 0.0 0.00 0.00 0.00 56 1016.0
20260504033834 9 232 0.0 0.0 0.00 0.00 0.00 53 1016.0
20260504033322 9 232 0.0 0.0 0.00 0.00 0.00 53 1015.9
20260504032827 9 232 0.0 4.8 0.00 0.00 0.00 53 1016.0
20260504032336 9 231 0.0 4.8 0.00 0.00 0.00 52 1015.9
20260504031821 10 228 0.0 6.4 0.00 0.00 0.00 52 1015.9
20260504031330 10 228 0.0 6.4 0.00 0.00 0.00 52 1015.9
20260504030835 10 229 1.6 4.8 0.00 0.00 0.00 52 1015.9
20260504030323 10 229 0.0 0.0 0.00 0.00 0.00 52 1015.8
20260504025832 10 226 0.0 0.0 0.00 0.00 0.00 51 1015.8
20260504025320 10 226 0.0 0.0 0.00 0.00 0.00 50 1015.7
20260504024825 10 224 0.0 0.0 0.00 0.00 0.00 50 1015.7
20260504024334 10 224 0.0 6.4 0.00 0.00 0.00 49 1015.7
20260504023820 10 220 3.2 6.4 0.00 0.00 0.00 50 1015.7
20260504023306 10 218 0.0 3.2 0.00 0.00 0.00 49 1015.5
20260504022320 10 218 0.0 4.8 0.00 0.00 0.00 47 1015.5
20260504021826 10 218 0.0 4.8 0.00 0.00 0.00 47 1015.5
20260504021318 11 218 0.0 4.8 0.00 0.00 0.00 48 1015.6
20260504020805 11 270 0.0 4.8 0.00 0.00 0.00 48 1015.5
20260504015817 12 270 1.6 4.8 0.00 0.00 0.00 44 1015.4
20260504015325 12 270 0.0 0.0 0.00 0.00 0.00 46 1015.4
20260504014831 12 270 0.0 0.0 0.00 0.00 0.00 46 1015.4
20260504014319 12 265 0.0 0.0 0.00 0.00 0.00 42 1015.5
20260504013805 12 262 0.0 6.4 0.00 0.00 0.00 41 1015.4
20260504012818 12 273 1.6 6.4 0.00 0.00 0.00 41 1015.2
20260504012330 12 269 0.0 0.0 0.00 0.00 0.00 42 1015.3
20260504011756 12 266 0.0 4.8 0.00 0.00 0.00 42 1015.2
20260504011323 12 266 0.0 4.8 0.00 0.00 0.00 42 1015.2
20260504010828 12 266 0.0 4.8 0.00 0.00 0.00 41 1015.2
20260504010337 12 271 0.0 0.0 0.00 0.00 0.00 42 1015.2
20260504005822 12 260 0.0 0.0 0.00 0.00 0.00 42 1015.2
20260504005330 12 258 0.0 3.2 0.00 0.00 0.00 41 1015.2
20260504004836 13 258 0.0 11.3 0.00 0.00 0.00 41 1015.1
20260504004324 13 253 3.2 11.3 0.00 0.00 0.00 39 1015.0
20260504003830 13 262 0.0 0.0 0.00 0.00 0.00 38 1015.0
20260504003322 13 260 0.0 6.4 0.00 0.00 0.00 38 1015.0
20260504002830 13 265 0.0 9.7 0.00 0.00 0.00 38 1015.0
20260504002337 13 271 3.2 6.4 0.00 0.00 0.00 40 1014.9
20260504001822 13 271 0.0 1.6 0.00 0.00 0.00 40 1014.9
20260504001330 14 271 0.0 11.3 0.00 0.00 0.00 38 1014.9
20260504000816 14 260 0.0 11.3 0.00 0.00 0.00 37 1014.9
20260504000324 14 281 0.0 1.6 0.00 0.00 0.00 36 1014.9
20260503235751 15 278 0.0 11.3 0.00 0.00 0.00 36 1014.8
20260503234808 15 284 4.8 14.5 0.00 0.00 0.00 35 1014.7
20260503233822 15 302 4.8 14.5 0.00 0.00 0.00 34 1014.7
20260503233308 15 302 6.4 17.7 0.00 0.00 0.00 34 1014.6
20260503232835 15 302 6.4 17.7 0.00 0.00 0.00 34 1014.6
20260503232301 16 273 3.2 16.1 0.00 0.00 0.00 33 1014.5
20260503231335 16 307 4.8 22.5 0.00 0.00 0.00 33 1014.5
20260503230821 16 331 14.5 22.5 0.00 0.00 0.00 31 1014.4
20260503230328 16 327 9.7 20.9 0.00 0.00 0.00 32 1014.4
20260503225818 16 302 14.5 22.5 0.00 0.00 0.00 32 1014.4
20260503225326 16 321 14.5 22.5 0.00 0.00 0.00 31 1014.3
20260503224832 16 282 8.0 22.5 0.00 0.00 0.00 31 1014.3
20260503224320 16 296 14.5 20.9 0.00 0.00 0.00 32 1014.3
20260503223826 16 254 12.9 22.5 0.00 0.00 0.00 32 1014.3
20260503223334 16 314 16.1 22.5 0.00 0.00 0.00 32 1014.3
20260503222821 16 287 12.9 29.0 0.00 0.00 0.00 31 1014.4
20260503222307 17 258 12.9 27.4 0.00 0.00 0.00 32 1014.4
20260503221305 17 276 12.9 24.1 0.00 0.00 0.00 33 1014.5
20260503220319 17 288 11.3 17.7 0.00 0.00 0.00 32 1014.6
20260503215825 17 321 8.0 25.7 0.00 0.00 0.00 32 1014.6
20260503215333 17 313 17.7 25.7 0.00 0.00 0.00 31 1014.6
20260503214800 18 336 11.3 17.7 0.00 0.00 0.00 30 1014.6
20260503213833 17 286 6.4 14.5 0.00 0.00 0.00 34 1014.5
20260503213300 17 303 3.2 19.3 0.00 0.00 0.00 31 1014.7
20260503212318 17 306 11.3 19.3 0.00 0.00 0.00 31 1014.7
20260503211825 17 5 11.3 19.3 0.00 0.00 0.00 31 1014.7
20260503211250 17 290 14.5 25.7 0.00 0.00 0.00 32 1014.6
20260503210817 17 290 14.5 25.7 0.00 0.00 0.00 32 1014.6
20260503210326 17 275 19.3 27.4 0.00 0.00 0.00 31 1014.6
20260503205831 17 355 12.9 29.0 0.00 0.00 0.00 34 1014.6
20260503205319 17 286 16.1 29.0 0.00 0.00 0.00 31 1014.6
20260503204824 17 321 14.5 25.7 0.00 0.00 0.00 31 1014.7
20260503204333 17 188 4.8 25.7 0.00 0.00 0.00 32 1014.7
20260503203821 17 318 12.9 20.9 0.00 0.00 0.00 32 1014.7
20260503203330 17 283 14.5 24.1 0.00 0.00 0.00 31 1014.7
20260503202837 18 269 12.9 24.1 0.00 0.00 0.00 30 1014.8
20260503202304 17 294 4.8 27.4 0.00 0.00 0.00 31 1014.7
20260503201318 17 295 14.5 27.4 0.00 0.00 0.00 32 1014.9
20260503200823 18 271 11.3 22.5 0.00 0.00 0.00 32 1015.0
20260503200332 18 344 11.3 20.9 0.00 0.00 0.00 35 1015.1
20260503195817 17 282 4.8 20.9 0.00 0.00 0.00 35 1015.1
20260503195325 17 325 9.7 27.4 0.00 0.00 0.00 31 1015.2
20260503194835 17 311 11.3 27.4 0.00 0.00 0.00 34 1015.3
20260503194323 17 10 6.4 27.4 0.00 0.00 0.00 35 1015.3
20260503193828 17 9 14.5 27.4 0.00 0.00 0.00 32 1015.4
20260503193336 17 306 14.5 22.5 0.00 0.00 0.00 32 1015.5
20260503192821 17 325 8.0 24.1 0.00 0.00 0.00 34 1015.6
20260503192329 17 289 12.9 24.1 0.00 0.00 0.00 38 1015.6
20260503191835 17 337 6.4 32.2 0.00 0.00 0.00 36 1015.9
20260503191323 16 271 14.5 33.8 0.00 0.00 0.00 34 1015.8
20260503190829 17 290 20.9 33.8 0.00 0.00 0.00 32 1016.0
20260503190321 17 321 11.3 27.4 0.00 0.00 0.00 37 1016.0
20260503185827 17 320 12.9 30.6 0.00 0.00 0.00 33 1016.0
20260503185335 17 298 16.1 30.6 0.00 0.00 0.00 33 1016.0
20260503184822 17 10 6.4 24.1 0.00 0.00 0.00 39 1016.0
20260503184329 16 355 12.9 24.1 0.00 0.00 0.00 36 1016.1
20260503183835 16 308 11.3 29.0 0.00 0.00 0.00 37 1016.1
20260503183322 16 324 11.3 29.0 0.00 0.00 0.00 36 1016.3
20260503182830 16 310 17.7 38.6 0.00 0.00 0.00 36 1016.3
20260503182256 16 195 17.7 29.0 0.00 0.00 0.00 39 1016.4
20260503181252 16 308 16.1 30.6 0.00 0.00 0.00 37 1016.5
20260503180327 15 320 16.1 29.0 0.00 0.00 0.00 41 1016.5
20260503175832 15 13 17.7 37.0 0.00 0.00 0.00 37 1016.5
20260503175320 15 311 20.9 37.0 0.00 0.00 0.00 37 1016.6
20260503174806 15 13 9.7 29.0 0.00 0.00 0.00 42 1016.6
20260503173819 15 334 12.9 29.0 0.00 0.00 0.00 42 1016.7
20260503173327 15 300 11.3 29.0 0.00 0.00 0.00 40 1016.7
20260503172758 15 318 8.0 27.4 0.00 0.00 0.00 47 1016.7
20260503171830 14 302 16.1 33.8 0.00 0.00 0.00 41 1016.9
20260503171318 15 308 16.1 27.4 0.00 0.00 0.00 42 1016.8
20260503170805 13 331 11.3 25.7 0.00 0.00 0.00 44 1017.0
20260503170332 13 331 11.3 25.7 0.00 0.00 0.00 44 1017.0
20260503150818 11 310 12.9 27.4 0.00 0.00 0.00 49 1017.9
20260503150331 11 285 14.5 32.2 0.00 0.00 0.00 50 1017.9
20260503131328 9 338 11.3 24.1 0.00 0.00 0.00 55 1018.3
20260503130834 9 32 8.0 22.5 0.00 0.00 0.00 57 1018.3
20260503130321 8 350 6.4 22.5 0.00 0.00 0.00 56 1018.3